Showing default

COSMOS 2255, 22690

Orbit data source: Space-Track

COSMOS 2255, 22690 is a payload satellite owned by VKS (CIS) in LEO that was launched on Thu, 24 Jun 1993 UTC via a TSIKLON-3 launch vehicle from the Plesetsk Missile And Space Complex (PKMTR). Payload-class satellites include a variety of spacecraft equipped with specific instruments for various scientific and technological missions. These include communications satellites like Starlink; space stations such as the ISS; scientific satellites like the Hubble; Earth observation satellites from companies like Planet Labs, Umbra, and HawkEye 360; GPS; miniature CubeSats for education and research; and military/defense satellites.

Loading next visibility...
Identifier
22690, 1993-038D
Orbit
LEO
Country
Flag of CISCIS
Related business
Manufacturer
NPO PM
Mission
Defense Communications
Bus & Motor
STRELA-3, Unknown motor
Mass
225 kg wet, 225 kg dry
Launch date (UTC)
1993-06-24 (32 years ago)
Launch vehicle
TSIKLON-3
Launch site
Plesetsk Missile And Space Complex (PKMTR)
Object type
Payload
Rocket body
Debris
Shape & HBR
Cyl, 0.8 m
Radar Cross Section
1.257 m², Medium (>0.1 m² and < 1m²)

Expand to show TLE details & history
Last TLE update: 18 hours ago

TLE from 18 hours ago
0 COSMOS 2255
1 22690U 93038D   25347.27434406  .00000032  00000-0  11651-3 0  9995
2 22690  82.5848 348.3875 0006778  52.6200 319.0178 12.63323093497750
Epoch: 2025-12-13T06:35Z
TLE epoch observation values (Epoch: 2025-12-13T06:35:03.326Z)
Latitude
11.4455°
Longitude
168.92212°
Altitude
1,407.255 km
Speed
7.159 km/s
True Right ascension
23h 19m 33s
True Declination
11° 23' 04"
Sunlit
Object was in daylight at epoch
Visualization orbit readout
Latitude
Unknown
Longitude
Unknown
Altitude
Unknown
Speed
Unknown
Apparent Right ascension
Unknown
Apparent Declination
Unknown
Sunlit
N/A
Visualization observer readout
Local Sidereal Time
23:34:40
Azimuth
Unknown
Elevation
Unknown
Doppler factor
Unknown
Orbital elements
Apogee altitude
1,411.854 km
Perigee altitude
1,401.301 km
Semi-major axis
7,784.714 km
Eccentricity
0.00068
Inclination
82.5848°
RAAN
348.3875°
Arg. of periapsis
52.62°
True anomaly
318.96683°
Mean anomaly
319.0178°
Eccentric anomaly
318.99232°
Mean motion
3.15994 °/min
Orbital period
113.93 mins
BSTAR
0.00011651
Loading maneuver chart data...
Computing Atmospheric mass density...
Loading historical data...
Loading historical data...
Loading historical data...
Loading historical data...
Loading historical data...
Loading historical data...
Loading historical data...

Documentation

Showing up to 5 results
|